Showing default

QIANFAN-33, 61566

Orbit data source: Space-Track

QIANFAN-33, 61566 is a Chinese payload satellite in LEO that was launched on Tue, 15 Oct 2024 UTC via a CHANG ZHENG 6A launch vehicle from the Taiyaun Space Center, China (TSC). Payload-class satellites include a variety of spacecraft equipped with specific instruments for various scientific and technological missions. These include communications satellites like Starlink; space stations such as the ISS; scientific satellites like the Hubble; Earth observation satellites from companies like Planet Labs, Umbra, and HawkEye 360; GPS; miniature CubeSats for education and research; and military/defense satellites.

Loading next visibility...
Identifier
61566, 2024-185Q
Orbit
LEO
Country
Flag of CNCN / PRC
Related business
Manufacturer
GESIH/SECM
Mission
Operational Commercial Communications
Bus & Motor
QIANFAN, Unknown motor
Mass
267 kg wet, ~267 kg dry
Launch date (UTC)
2024-10-15 (1 year ago)
Launch vehicle
CHANG ZHENG 6A
Launch site
Taiyaun Space Center, China (TSC)
Object type
Payload
Rocket body
Debris
Shape & HBR
Box + 1 Pan, 5.0 m
Radar Cross Section
13.200 m², Large (>1 m²)

Expand to show TLE details & history
Last TLE update: 9 hours ago

TLE from 9 hours ago
0 QIANFAN-33
1 61566U 24185Q   25353.78271079  .00000285  00000-0  19610-3 0  9998
2 61566  88.9801  78.0251 0005170 313.2641  46.8104 13.96555037 70145
Epoch: 2025-12-19T18:47Z
TLE epoch observation values (Epoch: 2025-12-19T18:47:06.212Z)
Latitude
-0.00001°
Longitude
67.6303°
Altitude
906.191 km
Speed
7.4 km/s
True Right ascension
05h 12m 06s
True Declination
0° 00' 00"
Sunlit
Object was in full shadow at epoch
Visualization orbit readout
Latitude
Unknown
Longitude
Unknown
Altitude
Unknown
Speed
Unknown
Apparent Right ascension
Unknown
Apparent Declination
Unknown
Sunlit
N/A
Visualization observer readout
Local Sidereal Time
02:53:06
Azimuth
Unknown
Elevation
Unknown
Doppler factor
Unknown
Orbital elements
Apogee altitude
906.498 km
Perigee altitude
898.97 km
Semi-major axis
7,280.871 km
Eccentricity
0.00052
Inclination
88.9801°
RAAN
78.0251°
Arg. of periapsis
313.2641°
True anomaly
46.85361°
Mean anomaly
46.8104°
Eccentric anomaly
46.832°
Mean motion
3.49356 °/min
Orbital period
103.05 mins
BSTAR
0.0001961
Loading maneuver chart data...
Computing Atmospheric mass density...
Loading historical data...
Loading historical data...
Loading historical data...
Loading historical data...
Loading historical data...
Loading historical data...
Loading historical data...

Documentation

Showing up to 5 results
|